[[{"header":{"parameterUnit":"m.s-1","parameterCategory":1,"la1":30.2991,"la2":30.254,"lo1":-89.0895,"lo2":-89.0444,"dy":0.0017,"dx":0.0017,"nx":28,"ny":28,"refTime":"2023-09-10T09:00:00:Z","depth":0,"parameterNumber":2,"parameterNumberName":"U-component_of_WINDS"},"data":[0,0,0,0,0,0,0,0,0,0,0,0,0,0,0,0,0,0,0,0,0,0,0,0,0,0,0,0,0,0,0,0,0,0,0,0,0,0,0,0,0,0,0,0,0,0,0,0,0,0,0,0,0,0,0,0,0,0,-0.6299,-0.6299,0,-0.624,-0.6239,-0.6239,-0.6235,-0.6235,-0.6236,-0.6237,-0.6171,-0.6169,-0.6166,0,0,0,0,0,0,0,0,0,0,0,0,0,-0.6402,-0.6401,-0.6299,-0.6298,-0.6298,-0.624,-0.6239,-0.6238,-0.6234,-0.6235,-0.6236,-0.6237,-0.6172,-0.6169,-0.6166,0,0,0,0,0,0,0,0,0,0,0,0,0,-0.6352,-0.64,-0.6299,-0.6289,-0.6287,-0.624,-0.6239,-0.6238,-0.6234,-0.6235,-0.6236,-0.6237,-0.6173,-0.6169,-0.6166,-0.6123,0,0,-0.6155,-0.6153,0,0,0,0,0,0,0,0,-0.6355,-0.6348,-0.6291,-0.629,-0.6288,-0.6246,-0.6252,-0.62,-0.6234,-0.6254,-0.6237,-0.6238,-0.6195,-0.6189,-0.6176,-0.612,-0.6118,-0.6154,-0.6152,-0.6151,-0.615,0,0,0,0,0,0,0,-0.6358,-0.635,-0.6276,-0.629,-0.6288,-0.6285,-0.6279,-0.6242,-0.6219,-0.6253,-0.6252,-0.6245,-0.6194,-0.6179,-0.6174,-0.6117,-0.6155,-0.6151,-0.6149,-0.6148,-0.602,-0.6019,0,0,0,0,0,0,-0.6364,-0.6353,-0.6277,-0.6274,-0.6325,-0.6282,-0.6276,-0.6258,-0.622,-0.6215,-0.6245,-0.6246,-0.6185,-0.6178,-0.6172,-0.6118,-0.6151,-0.6147,-0.6145,-0.6021,-0.602,-0.6018,0,0,0,0,0,0,-0.6367,-0.6358,-0.628,-0.6313,-0.6303,-0.628,-0.626,-0.6256,-0.6242,-0.6214,-0.6209,-0.6234,-0.6185,-0.6177,-0.6135,-0.6116,-0.6146,-0.6143,-0.6023,-0.6021,-0.6019,-0.601,0,0,0,0,0,0,-0.637,-0.6359,-0.6344,-0.6313,-0.6302,-0.6246,-0.6259,-0.6255,-0.6236,-0.6237,-0.6203,-0.6198,-0.6186,-0.6141,-0.6132,-0.6111,-0.614,-0.6024,-0.6022,-0.602,-0.6012,-0.6009,-0.6005,0,0,0,0,0,-0.6373,-0.6343,-0.6343,-0.6334,-0.6283,-0.6245,-0.6238,-0.6226,-0.6235,-0.6219,-0.62,-0.6199,-0.612,-0.6136,-0.6126,-0.6104,-0.6026,-0.6023,-0.602,-0.6014,-0.6009,-0.6005,0,0,0,0,0,0,-0.6371,-0.6339,-0.6339,-0.6298,-0.6274,-0.6244,-0.6224,-0.6221,-0.6193,-0.6195,-0.6179,-0.6171,-0.6129,-0.6113,-0.6132,-0.606,-0.6073,-0.6068,-0.6072,-0.6067,-0.6064,-0.6068,-0.6137,0,0,0,0,0,-0.6366,-0.634,-0.6313,-0.6279,-0.6267,-0.6248,-0.6231,-0.6223,-0.6197,-0.6186,-0.6165,-0.6138,-0.6107,-0.6087,-0.6056,-0.601,-0.6001,-0.599,-0.5987,-0.5984,-0.5979,-0.595,-0.5944,-0.6009,-0.6009,-0.6009,0,0,-0.6355,-0.6334,-0.6318,-0.6278,-0.6259,-0.6229,-0.6239,-0.6208,-0.6185,-0.6181,-0.614,-0.6123,-0.6092,-0.6048,-0.6027,-0.6033,-0.5959,-0.598,-0.5978,-0.5975,-0.5947,-0.5941,-0.5935,-0.6007,-0.6008,-0.6008,0,0,-0.6319,-0.6302,-0.6271,-0.6252,-0.6223,-0.621,-0.6202,-0.6172,-0.6161,-0.612,-0.6116,-0.6087,-0.6035,-0.6012,-0.5993,-0.5947,-0.5944,-0.5938,-0.5918,-0.5891,-0.5886,-0.5881,-0.5862,-0.5856,-0.5933,-0.5933,-0.5933,0,-0.6308,-0.6266,-0.6255,-0.6224,-0.6205,-0.6202,-0.6169,-0.615,-0.6112,-0.6098,-0.6105,-0.6037,-0.6016,-0.5965,-0.5953,-0.5939,-0.5928,-0.5941,-0.5888,-0.5883,-0.5878,-0.586,-0.5853,-0.5933,-0.5933,-0.5933,-0.5933,0,-0.6253,-0.6223,-0.6201,-0.6166,-0.6145,-0.6113,-0.6095,-0.6075,-0.6069,-0.6054,-0.601,-0.5985,-0.5949,-0.5936,-0.593,-0.5883,-0.5887,-0.5891,-0.5904,-0.5871,-0.5854,-0.5847,-0.5932,-0.5932,-0.5932,-0.5932,0,0,-0.6213,-0.6172,-0.6164,-0.6147,-0.6114,-0.609,-0.6056,-0.6022,-0.6003,-0.5977,-0.5947,-0.5901,-0.5905,-0.5884,-0.5874,-0.5851,-0.5812,-0.5857,-0.5856,-0.5848,-0.5755,-0.5751,-0.5743,-0.5811,-0.5809,-0.5808,-0.5757,0,-0.6172,-0.6115,-0.6104,-0.6053,-0.6024,-0.6019,-0.599,-0.5965,-0.595,-0.5921,-0.5904,-0.5871,-0.5879,-0.5866,-0.5842,-0.5822,-0.5793,-0.5826,-0.5779,-0.5778,-0.5786,-0.5734,-0.573,-0.5683,-0.575,-0.5749,-0.5748,0,-0.6117,-0.609,-0.6036,-0.6005,-0.5993,-0.5967,-0.5933,-0.5907,-0.5877,-0.5868,-0.5844,-0.5837,-0.5799,-0.5815,-0.5761,-0.5784,-0.5764,-0.5751,-0.5749,-0.5742,-0.576,-0.5724,-0.5668,-0.566,-0.5738,-0.5739,-0.574,0,-0.609,-0.6041,-0.6002,-0.5987,-0.5951,-0.5932,-0.5916,-0.5888,-0.5867,-0.5837,-0.5823,-0.5788,-0.5769,-0.5741,-0.5724,-0.5737,-0.567,-0.5685,-0.5659,-0.5659,-0.5643,-0.5644,-0.5581,-0.5635,-0.5635,-0.5635,-0.5635,0,-0.6044,-0.6011,-0.5989,-0.5965,-0.5926,-0.5913,-0.5875,-0.5858,-0.5833,-0.5803,-0.5797,-0.5769,-0.5749,-0.5718,-0.5704,-0.566,-0.5651,-0.5641,-0.5637,-0.564,-0.5641,-0.5625,-0.5627,-0.5633,-0.5633,-0.5634,-0.5634,0,-0.6008,-0.5992,-0.5949,-0.5918,-0.591,-0.5882,-0.5855,-0.5829,-0.5814,-0.5777,-0.5767,-0.5742,-0.5704,-0.5685,-0.5638,-0.5628,-0.5578,-0.5577,-0.5588,-0.5586,-0.556,-0.5561,-0.5482,-0.547,-0.5534,-0.5533,-0.5533,0,-0.5979,-0.5953,-0.592,-0.59,-0.5884,-0.5853,-0.5831,-0.5816,-0.5794,-0.5758,-0.5736,-0.5699,-0.5667,-0.5607,-0.5583,-0.5546,-0.5543,-0.5518,-0.5537,-0.554,-0.5539,-0.554,-0.5536,-0.5513,-0.5513,-0.5512,-0.5512,0,-0.5928,-0.5921,-0.5892,-0.5859,-0.5834,-0.5807,-0.5781,-0.5765,-0.5745,-0.572,-0.5682,-0.5658,-0.5609,-0.557,-0.5532,-0.5512,-0.5507,-0.5506,-0.5498,-0.5499,-0.5506,-0.5499,-0.5576,-0.5508,-0.5508,-0.5508,-0.5509,-0.5509,-0.5892,-0.5868,-0.5841,-0.5807,-0.5786,-0.5761,-0.5735,-0.5717,-0.5686,-0.5646,-0.5639,-0.5597,-0.5566,-0.5513,-0.5493,-0.5458,-0.5463,-0.5452,-0.5448,-0.5445,-0.5442,-0.5513,-0.5451,-0.5452,-0.5452,-0.5452,-0.5452,0,-0.5838,-0.582,-0.579,-0.5753,-0.5727,-0.5727,-0.5697,-0.5674,-0.5638,-0.561,-0.558,-0.5535,-0.5497,-0.547,-0.5431,-0.5408,-0.5405,-0.5398,-0.5398,-0.5393,-0.5441,-0.5452,-0.5401,-0.5401,-0.5401,-0.5401,-0.5401,-0.5401,-0.5807,-0.5766,-0.5756,-0.5703,-0.5684,-0.5645,-0.5627,-0.5603,-0.5581,-0.5531,-0.55,-0.5483,-0.5455,-0.5413,-0.5377,-0.537,-0.5355,-0.5348,-0.534,-0.5385,-0.539,-0.5395,-0.5405,-0.5345,-0.5345,-0.5294,-0.5294,-0.5293]},{"header":{"parameterUnit":"m.s-1","parameterCategory":1,"la1":30.2991,"la2":30.254,"lo1":-89.0895,"lo2":-89.0444,"dy":0.0017,"dx":0.0017,"nx":28,"ny":28,"refTime":"2023-09-10T09:00:00:Z","depth":0,"parameterNumber":3,"parameterNumberName":"V-component_of_WINDS"},"data":[0,0,0,0,0,0,0,0,0,0,0,0,0,0,0,0,0,0,0,0,0,0,0,0,0,0,0,0,0,0,0,0,0,0,0,0,0,0,0,0,0,0,0,0,0,0,0,0,0,0,0,0,0,0,0,0,0,0,-1.2077,-1.2077,0,-1.2105,-1.2105,-1.2105,-1.2135,-1.2135,-1.2136,-1.2136,-1.2164,-1.2164,-1.2165,0,0,0,0,0,0,0,0,0,0,0,0,0,-1.2048,-1.2049,-1.2077,-1.2078,-1.2078,-1.2105,-1.2105,-1.2106,-1.2135,-1.2135,-1.2136,-1.2136,-1.2164,-1.2164,-1.2165,0,0,0,0,0,0,0,0,0,0,0,0,0,-1.2067,-1.2049,-1.2077,-1.2096,-1.2098,-1.2105,-1.2105,-1.2106,-1.2135,-1.2136,-1.2136,-1.2137,-1.2164,-1.2164,-1.2165,-1.2155,0,0,-1.2166,-1.2166,0,0,0,0,0,0,0,0,-1.2066,-1.2068,-1.2093,-1.2095,-1.2097,-1.2117,-1.2105,-1.2122,-1.2135,-1.2121,-1.2136,-1.2137,-1.2148,-1.215,-1.2153,-1.2157,-1.2158,-1.2166,-1.2167,-1.2167,-1.2167,0,0,0,0,0,0,0,-1.2064,-1.2067,-1.2088,-1.2093,-1.2095,-1.2102,-1.2106,-1.2109,-1.213,-1.2122,-1.2124,-1.2127,-1.2149,-1.2153,-1.2154,-1.2158,-1.2166,-1.2167,-1.2167,-1.2167,-1.2153,-1.2152,0,0,0,0,0,0,-1.2061,-1.2066,-1.2087,-1.2089,-1.2083,-1.2102,-1.2106,-1.211,-1.213,-1.2134,-1.2127,-1.2128,-1.2152,-1.2154,-1.2155,-1.2144,-1.2167,-1.2167,-1.2168,-1.2153,-1.2153,-1.2152,0,0,0,0,0,0,-1.206,-1.2062,-1.2086,-1.2078,-1.2081,-1.2102,-1.2106,-1.211,-1.2114,-1.2134,-1.2138,-1.2127,-1.2152,-1.2155,-1.2155,-1.2146,-1.2168,-1.2168,-1.2154,-1.2153,-1.2152,-1.2123,0,0,0,0,0,0,-1.2059,-1.2062,-1.2059,-1.2078,-1.2082,-1.2085,-1.2106,-1.211,-1.2115,-1.2118,-1.2135,-1.2138,-1.2153,-1.2154,-1.2155,-1.2147,-1.2168,-1.2155,-1.2154,-1.2153,-1.2124,-1.2121,-1.2117,0,0,0,0,0,-1.2058,-1.205,-1.2059,-1.2061,-1.2079,-1.2085,-1.2087,-1.2104,-1.2114,-1.2111,-1.2123,-1.2138,-1.2147,-1.2153,-1.2155,-1.2147,-1.2156,-1.2154,-1.2153,-1.2126,-1.2121,-1.2117,0,0,0,0,0,0,-1.203,-1.2053,-1.2063,-1.2061,-1.207,-1.209,-1.2086,-1.2099,-1.2106,-1.2108,-1.2129,-1.2133,-1.213,-1.2139,-1.2146,-1.2138,-1.2153,-1.2152,-1.2132,-1.2128,-1.2125,-1.2122,-1.2169,0,0,0,0,0,-1.2023,-1.2026,-1.2046,-1.2042,-1.2047,-1.2066,-1.2069,-1.2081,-1.2092,-1.2097,-1.2109,-1.2119,-1.2124,-1.2127,-1.2132,-1.2126,-1.2129,-1.2121,-1.2118,-1.2115,-1.2113,-1.2108,-1.2104,-1.2147,-1.2147,-1.2147,0,0,-1.201,-1.2023,-1.2024,-1.2037,-1.2046,-1.2048,-1.2069,-1.2071,-1.2073,-1.2097,-1.2097,-1.2107,-1.2119,-1.2115,-1.2114,-1.2122,-1.2102,-1.2113,-1.211,-1.211,-1.2106,-1.2102,-1.2099,-1.2146,-1.2146,-1.2146,0,0,-1.1986,-1.1997,-1.1994,-1.2003,-1.2016,-1.2028,-1.2027,-1.2045,-1.2052,-1.2052,-1.207,-1.2072,-1.2081,-1.2088,-1.2093,-1.2071,-1.2084,-1.2072,-1.2053,-1.2049,-1.2045,-1.2042,-1.2033,-1.2029,-1.207,-1.207,-1.207,0,-1.1968,-1.1973,-1.1991,-1.1991,-1.1996,-1.2018,-1.2014,-1.2022,-1.2036,-1.2039,-1.2048,-1.2057,-1.2067,-1.2065,-1.2059,-1.2063,-1.2062,-1.207,-1.2044,-1.2042,-1.2039,-1.203,-1.2027,-1.2069,-1.2069,-1.2069,-1.2069,0,-1.1948,-1.1951,-1.1947,-1.196,-1.1964,-1.1963,-1.198,-1.1983,-1.1994,-1.2005,-1.2004,-1.2017,-1.2025,-1.2025,-1.2037,-1.2024,-1.2028,-1.2041,-1.2056,-1.2033,-1.2025,-1.2022,-1.2066,-1.2067,-1.2068,-1.2068,0,0,-1.1909,-1.1931,-1.1929,-1.1934,-1.195,-1.1952,-1.1951,-1.1958,-1.1959,-1.1968,-1.1966,-1.1972,-1.1983,-1.1989,-1.2001,-1.1997,-1.1977,-1.201,-1.201,-1.2002,-1.1961,-1.1951,-1.1947,-1.1986,-1.1985,-1.1985,-1.1959,0,-1.1887,-1.1886,-1.1902,-1.1897,-1.1898,-1.1919,-1.1917,-1.1926,-1.1936,-1.1939,-1.195,-1.1953,-1.1968,-1.1971,-1.1968,-1.198,-1.1969,-1.1982,-1.1983,-1.1983,-1.1978,-1.1943,-1.1932,-1.1908,-1.1957,-1.1956,-1.1956,0,-1.1862,-1.1868,-1.1863,-1.1877,-1.1878,-1.1877,-1.1884,-1.1887,-1.1897,-1.1904,-1.1909,-1.1923,-1.1922,-1.1938,-1.1936,-1.1944,-1.1946,-1.1952,-1.1951,-1.1951,-1.1967,-1.194,-1.1901,-1.1896,-1.1951,-1.1952,-1.1952,0,-1.1831,-1.1839,-1.1836,-1.184,-1.1857,-1.1855,-1.1862,-1.1873,-1.1876,-1.1882,-1.1884,-1.189,-1.1893,-1.1897,-1.1912,-1.1922,-1.1907,-1.1924,-1.1912,-1.1912,-1.1908,-1.1907,-1.1866,-1.1911,-1.1911,-1.1911,-1.1911,0,-1.1804,-1.18,-1.1822,-1.182,-1.1815,-1.1833,-1.1828,-1.1837,-1.1846,-1.1845,-1.1864,-1.1863,-1.1883,-1.1884,-1.1896,-1.1891,-1.1893,-1.1898,-1.1901,-1.1896,-1.1895,-1.1896,-1.1898,-1.191,-1.191,-1.191,-1.1911,0,-1.1769,-1.1784,-1.1782,-1.1798,-1.1801,-1.1797,-1.181,-1.1808,-1.1819,-1.1818,-1.1819,-1.1836,-1.1838,-1.1854,-1.186,-1.1867,-1.1858,-1.1865,-1.1854,-1.1856,-1.1842,-1.1843,-1.1799,-1.1794,-1.1843,-1.1843,-1.1842,0,-1.175,-1.1747,-1.1762,-1.1763,-1.1769,-1.177,-1.1773,-1.179,-1.1792,-1.1803,-1.1799,-1.1803,-1.1807,-1.1809,-1.1821,-1.1825,-1.1831,-1.1816,-1.1832,-1.1826,-1.1829,-1.1829,-1.1828,-1.1812,-1.1812,-1.1811,-1.1811,0,-1.1715,-1.1722,-1.1725,-1.173,-1.1733,-1.1738,-1.1744,-1.1744,-1.1763,-1.1764,-1.1766,-1.1769,-1.1774,-1.1777,-1.1783,-1.1789,-1.1802,-1.1806,-1.1803,-1.1796,-1.179,-1.1791,-1.1843,-1.1806,-1.1807,-1.1807,-1.1807,-1.1807,-1.1687,-1.1684,-1.1693,-1.1696,-1.1702,-1.1707,-1.1705,-1.1716,-1.1718,-1.1723,-1.1733,-1.1733,-1.1742,-1.1752,-1.1757,-1.1757,-1.1765,-1.1761,-1.176,-1.1758,-1.1755,-1.1791,-1.1758,-1.1758,-1.1759,-1.1759,-1.1759,0,-1.1651,-1.1658,-1.166,-1.1667,-1.1668,-1.1681,-1.1688,-1.1688,-1.1688,-1.1695,-1.1698,-1.1699,-1.1702,-1.1714,-1.1717,-1.1715,-1.1721,-1.1715,-1.1714,-1.1715,-1.1748,-1.175,-1.171,-1.171,-1.171,-1.171,-1.171,-1.171,-1.1632,-1.1628,-1.1636,-1.1634,-1.1641,-1.1641,-1.1643,-1.1647,-1.1653,-1.1654,-1.1655,-1.1663,-1.1672,-1.1676,-1.1678,-1.1682,-1.1681,-1.1673,-1.1678,-1.1709,-1.1713,-1.1718,-1.1719,-1.1673,-1.1673,-1.1645,-1.1645,-1.1645]}]]